EHI
0 0 0 0 0 0 1 1 1 1 2 5 9 14 18 22 24 24 22 22 27 34 37 37 35 32 30 30 32 31 26 22 21 19 19 20 19 18 18 16 16 17 16 14
0 0 0 0 0 0 0 1 0 1 3 6 9 12 15 18 20 23 23 24 28 35 38 37 35 32 32 32 33 32 29 25 22 20 19 19 18 18 18 18 17 17 16 14
0 0 0 1 3 3 3 3 3 3 4 6 8 10 12 13 15 19 22 25 30 35 37 36 33 32 31 31 32 31 29 25 22 21 20 19 18 19 20 19 19 18 16 14
1 0 0 2 5 6 6 5 6 6 6 6 6 7 8 11 14 17 22 26 29 31 32 32 31 30 30 29 29 28 25 21 19 20 20 18 18 20 22 21 19 19 18 16
1 0 0 1 3 5 5 5 6 8 8 7 6 5 7 11 16 20 23 26 28 28 29 29 30 31 30 28 26 23 19 16 16 18 18 17 18 21 23 21 18 19 19 18
1 0 0 0 1 2 2 3 7 11 12 9 6 6 8 13 17 20 22 23 26 27 27 27 29 31 30 27 23 18 14 12 13 16 17 16 17 20 21 19 17 17 18 18
0 0 0 0 0 1 2 5 10 13 13 11 8 9 11 13 16 19 19 21 24 26 26 25 27 29 26 23 20 15 12 10 12 16 18 17 17 18 19 18 17 17 17 17
0 1 2 2 2 3 4 7 9 10 10 9 8 8 9 12 15 17 18 19 23 25 24 23 24 24 21 20 19 17 14 13 15 19 19 19 19 19 20 20 19 19 18 17
1 2 4 4 4 5 5 6 6 5 5 5 5 6 8 13 16 16 17 19 21 23 23 22 22 21 19 19 20 20 18 18 20 21 20 19 20 20 20 20 20 19 17 17
1 1 3 4 4 4 4 5 4 2 1 2 3 5 11 16 18 17 17 18 19 21 22 22 21 19 18 19 21 23 23 22 22 22 21 20 19 18 19 18 18 18 16 15
1 0 1 3 3 3 3 4 3 2 1 2 3 7 12 17 18 18 18 18 18 20 20 20 18 17 18 19 21 23 24 23 21 21 20 19 17 15 14 14 14 14 13 13
0 0 1 2 2 2 2 3 4 4 5 5 6 8 12 15 17 17 17 16 17 17 17 16 15 15 17 19 19 21 21 20 19 18 18 17 15 12 8 7 7 7 8 8
0 0 1 2 1 1 2 3 4 6 8 9 9 9 11 13 15 15 15 14 14 14 14 14 13 13 14 16 18 18 17 16 15 15 15 15 15 11 7 4 3 3 3 2
0 0 1 1 1 1 2 3 4 5 7 9 8 9 11 14 15 14 13 12 11 11 12 12 11 11 11 13 14 14 13 12 12 13 14 13 14 13 9 6 4 3 1 1
1 1 1 1 2 2 2 2 3 4 4 6 6 8 10 12 13 12 10 10 9 9 9 10 9 9 9 10 9 9 8 9 10 11 11 10 11 11 9 6 4 4 3 2
2 2 2 3 3 3 1 1 2 2 2 3 4 5 7 8 8 7 7 7 6 6 7 8 7 7 7 7 6 5 5 5 6 7 8 8 8 8 7 4 2 3 3 2
1 2 2 2 2 2 2 1 1 1 1 1 2 3 3 4 4 4 4 4 4 4 4 6 6 6 6 6 4 3 3 3 3 4 5 5 6 5 5 4 2 2 2 2
0 1 1 1 1 1 1 1 0 1 1 1 0 1 2 3 3 3 4 4 4 4 4 4 5 6 6 5 3 2 2 3 3 2 3 4 5 5 5 5 4 3 2 1
0 0 0 0 0 0 0 0 1 2 2 1 0 0 1 2 3 4 4 5 5 5 5 4 3 4 5 4 2 1 2 2 3 3 4 4 5 5 5 5 4 3 2 1
0 0 0 0 0 0 0 1 2 3 3 1 0 0 1 2 3 3 4 4 4 5 5 3 2 3 4 3 2 2 2 3 4 4 4 3 3 3 2 2 1 1 2 2
0 0 0 0 0 0 0 1 3 3 3 2 1 0 0 1 3 3 3 3 3 3 3 2 1 2 2 2 2 2 2 3 3 2 1 1 1 1 0 0 0 1 2 3
0 0 0 0 0 0 0 2 4 4 3 3 1 0 0 1 3 3 3 3 3 2 2 2 1 0 1 1 1 1 1 1 1 0 0 0 0 0 0 0 1 2 2 3
0 0 0 0 0 0 0 1 3 4 4 4 1 0 1 2 3 3 2 2 2 1 1 1 0 0 0 0 0 0 0 0 0 0 0 0 0 0 0 0 1 2 1 2
0 0 0 0 0 0 0 1 3 4 5 4 1 0 1 2 2 1 1 1 1 0 0 0 0 0 0 0 0 0 0 0 0 0 0 0 0 0 0 0 1 1 1 1
0 0 0 0 0 0 0 1 3 4 4 3 1 0 0 1 1 0 0 0 0 0 0 0 0 0 0 0 0 0 0 0 0 0 0 0 0 0 0 0 0 0 0 1
0 0 0 0 0 0 0 1 2 3 3 1 0 0 0 0 0 0 0 0 0 0 0 0 0 0 0 0 0 0 0 0 0 0 0 0 0 0 0 0 0 0 0 1
0 0 0 0 0 0 0 0 1 3 2 1 0 0 0 0 0 0 0 0 0 0 0 0 0 0 0 0 0 0 0 0 0 0 0 0 0 0 0 0 0 0 0 0
Wind_Speed
14 13 11 12 11 11 11 10 8 5 3 3 2 4 5 6 7 6 5 5 4 4 4 4 4 3 3 3 3 3 3 3 2 2 2 2 2 2 2 2 3 2 2 2
13 14 14 13 11 10 10 9 8 6 3 1 4 4 5 5 6 5 5 4 4 4 4 4 3 2 3 3 2 2 2 2 2 2 2 1 2 2 2 2 2 2 2 3
12 13 14 12 9 8 8 7 7 7 2 2 3 3 3 4 3 3 4 4 4 4 3 3 2 2 2 2 2 2 2 2 2 2 2 1 2 1 1 1 1 2 2 2
10 11 14 6 5 5 4 5 5 2 2 2 2 3 4 3 2 3 4 5 4 4 3 2 2 2 1 2 2 2 2 2 2 2 2 1 1 1 2 2 2 2 2 2
8 11 10 6 5 5 5 2 4 3 3 3 2 3 3 4 4 4 4 4 4 4 3 2 2 1 1 1 1 2 2 1 1 1 1 1 1 2 2 2 2 3 3 3
8 10 9 4 4 4 3 2 5 5 4 2 1 1 1 3 3 4 5 4 4 4 3 3 1 1 0 0 1 2 2 2 1 1 2 2 2 2 2 2 3 3 3 3
10 10 5 5 6 5 4 2 5 4 4 3 3 3 2 3 4 4 4 4 4 4 3 2 1 1 1 1 1 2 2 2 2 2 2 2 2 2 2 3 3 4 4 4
7 9 4 6 5 4 4 5 4 4 4 4 3 3 2 3 3 3 3 3 3 3 2 2 1 1 1 2 1 1 2 2 2 2 3 2 2 3 3 3 3 4 4 4
2 1 4 6 5 4 3 4 4 2 3 2 2 1 1 2 1 1 1 1 1 1 1 1 1 1 2 2 2 2 3 3 2 3 3 2 3 3 3 3 3 3 3 3
2 1 2 3 4 4 4 4 4 2 1 1 1 1 1 1 1 1 1 1 0 1 1 1 1 2 2 3 3 2 3 3 3 3 3 2 2 3 3 3 3 3 3 3
2 1 2 2 4 4 4 4 4 3 2 1 1 1 1 1 1 1 0 1 1 2 2 2 2 2 3 3 3 3 4 3 3 4 3 3 2 2 3 3 3 3 3 3
3 2 3 2 3 4 3 3 3 3 3 2 2 1 1 1 0 0 0 1 1 2 2 2 2 2 2 2 3 3 4 4 3 3 2 2 2 2 2 3 4 4 4 3
2 2 2 2 3 3 3 2 3 3 3 3 2 1 0 0 0 1 1 1 2 2 2 2 2 2 2 2 2 2 3 4 3 3 3 3 3 3 2 2 3 5 6 5
2 2 1 2 2 2 2 3 2 2 2 1 1 1 1 1 1 1 2 2 2 2 2 2 2 2 2 2 2 3 5 5 5 4 3 3 3 4 3 3 3 3 3 5
2 2 1 1 2 1 2 2 1 1 1 1 1 1 1 1 1 2 2 2 2 3 3 2 2 2 3 3 3 4 5 4 3 3 4 4 4 4 4 4 3 3 2 2
2 1 1 1 1 1 1 1 2 1 1 1 1 1 2 2 2 2 2 2 2 2 2 2 2 3 3 3 3 4 4 5 5 4 4 4 5 5 4 4 3 3 2 2
1 0 0 1 1 1 1 1 2 2 1 1 1 2 2 2 2 2 2 2 3 2 2 2 2 3 4 4 4 4 4 4 5 5 5 5 5 5 5 4 3 3 2 2
1 2 1 1 1 2 2 2 2 3 2 2 1 2 3 2 2 3 2 2 3 2 2 2 3 4 4 4 5 5 5 4 4 4 4 4 4 4 4 4 5 4 2 2
2 2 2 2 2 1 2 2 2 2 2 2 2 2 3 3 3 3 3 3 3 2 2 2 2 3 4 4 5 5 5 4 4 4 4 4 5 4 4 4 4 3 3 2
2 2 2 3 3 3 2 2 2 2 2 2 3 3 3 3 3 3 3 3 3 2 2 2 3 4 4 4 6 6 5 4 4 4 4 4 4 4 3 4 4 3 2 1
3 3 3 3 3 3 3 2 1 2 2 2 2 3 3 3 4 3 3 3 3 4 3 2 3 3 4 5 6 6 5 5 4 5 4 4 3 3 3 3 3 3 3 2
3 3 3 3 3 3 3 2 1 2 2 2 3 3 3 3 4 3 3 3 3 3 3 3 3 3 4 6 5 5 5 5 5 4 4 4 4 3 3 3 3 3 3 3
2 2 2 3 3 3 3 2 1 1 2 2 3 3 3 3 3 3 3 3 3 3 3 3 3 3 5 4 4 5 5 5 5 5 4 3 3 3 4 4 3 3 3 3
2 2 2 3 3 3 3 3 2 1 2 2 2 2 2 2 2 2 3 3 2 2 3 3 2 3 4 4 4 4 4 4 5 5 4 4 3 4 4 4 4 4 3 3
2 2 2 3 3 2 2 2 2 1 2 2 2 2 2 2 2 3 3 3 2 2 3 3 3 4 4 4 4 4 4 4 4 4 4 4 4 3 4 4 4 3 3 3
2 2 2 2 2 2 2 2 2 1 1 1 2 2 3 2 3 2 2 3 4 4 4 2 2 3 3 4 4 4 4 3 4 4 4 3 4 4 4 3 4 3 3 2
2 1 1 2 2 2 2 3 3 2 1 1 2 3 3 3 3 3 4 3 3 3 3 3 2 2 3 3 4 4 4 4 3 3 3 4 3 3 3 4 3 3 3 2
Wind_Direction
272 275 268 267 262 260 261 266 267 257 234 159 145 132 125 125 125 127 126 121 115 110 104 110 110 115 131 131 131 140 152 160 168 169 167 176 190 201 202 219 235 244 253 249
277 274 271 269 273 273 267 265 264 264 269 105 120 115 126 134 140 144 140 124 111 104 98 101 108 120 120 115 122 132 152 167 161 176 188 193 202 216 225 233 241 239 247 251
272 275 275 266 276 275 270 268 264 265 248 115 123 123 125 124 139 150 130 112 101 98 85 86 97 104 122 128 131 142 164 169 167 184 189 202 224 200 229 261 269 272 263 259
267 272 261 273 300 300 282 293 308 307 145 138 105 72 74 84 98 114 110 109 106 101 93 88 83 87 112 138 151 163 181 188 173 187 197 198 215 211 215 229 240 258 265 265
265 264 258 262 284 282 272 277 9 17 55 82 73 84 46 45 62 84 98 104 106 112 115 107 98 99 142 157 174 197 210 205 185 196 205 208 237 248 236 232 240 250 252 254
256 264 267 287 331 330 280 221 42 46 46 62 32 274 74 36 63 78 91 103 109 114 115 110 103 111 44 263 234 228 227 230 224 215 220 222 230 246 255 244 244 251 251 248
251 260 267 325 332 320 267 34 42 42 34 32 31 17 36 50 66 80 86 101 113 116 119 116 111 99 297 283 256 262 259 254 248 237 231 224 227 234 245 241 239 242 249 246
250 254 255 355 355 13 30 31 32 37 32 30 38 64 47 46 47 75 83 94 113 120 130 139 149 193 268 285 289 287 277 262 254 243 246 229 231 234 239 245 244 241 243 249
295 327 44 32 42 35 20 15 12 18 24 19 18 45 59 55 24 64 97 103 107 158 152 162 177 225 275 287 298 300 294 272 248 240 238 232 229 239 242 239 243 249 244 247
247 130 72 46 39 29 12 358 351 1 22 2 336 323 38 128 100 83 136 161 203 235 230 232 240 247 270 286 287 285 283 277 253 237 234 235 239 244 251 256 259 258 255 257
262 324 359 30 14 4 350 347 352 2 347 332 317 331 34 71 94 77 118 196 233 233 239 244 253 257 257 263 267 276 277 274 266 251 246 232 232 246 247 241 237 248 262 262
289 326 305 328 344 339 340 349 354 359 360 355 357 27 44 63 64 342 250 251 256 253 262 258 259 274 276 262 260 267 274 274 270 261 249 246 240 251 274 245 223 222 236 254
333 310 317 327 322 333 338 358 358 7 11 9 19 20 49 68 289 287 282 286 292 281 275 275 276 276 276 282 282 272 274 273 272 273 267 265 269 257 255 258 232 235 234 232
6 349 333 325 330 2 6 3 6 11 1 357 33 23 20 354 330 312 306 303 298 290 283 285 285 293 290 280 274 274 274 271 267 263 264 263 261 261 259 254 253 249 235 223
348 331 338 350 359 11 11 345 343 11 29 42 54 38 4 334 319 308 306 299 298 298 295 293 298 296 290 286 289 283 276 271 267 270 268 266 262 259 260 256 253 256 253 234
332 13 73 27 350 354 343 341 341 349 12 52 35 3 337 318 311 317 313 304 302 301 315 322 317 319 314 310 303 287 278 278 278 272 270 266 263 265 266 263 263 261 251 239
292 308 330 316 321 316 307 323 348 340 347 13 355 332 317 313 310 306 301 306 299 296 304 314 327 323 312 311 301 287 282 273 267 273 272 273 273 273 272 272 266 258 258 238
38 42 1 317 312 319 329 344 359 351 335 332 351 329 314 312 310 307 304 300 290 283 297 310 320 309 301 301 300 291 286 282 277 278 283 281 279 277 275 273 274 270 252 224
29 26 9 357 349 325 314 333 353 350 345 346 340 330 321 313 311 316 316 299 288 272 291 306 306 294 299 305 304 288 287 286 288 285 282 281 277 277 277 274 270 276 281 264
30 19 4 359 359 345 338 343 346 343 340 342 334 325 320 322 321 320 328 322 322 321 321 317 294 291 293 308 303 287 289 290 287 283 282 280 279 282 283 281 284 287 284 279
15 13 6 358 347 342 334 330 330 337 338 333 327 323 324 331 330 335 325 314 331 343 323 283 271 288 297 304 290 285 291 294 290 284 285 290 286 281 283 283 284 291 290 279
9 13 358 339 328 324 333 327 328 330 333 339 326 323 329 336 332 334 332 329 329 345 319 304 302 319 314 302 291 295 299 300 294 290 289 293 297 295 286 285 283 281 287 289
4 1 338 320 310 303 311 303 301 304 301 306 307 312 320 327 323 318 322 329 329 342 310 315 326 313 301 292 295 298 300 302 302 300 299 300 299 301 300 293 287 284 280 278
336 319 314 308 304 293 295 296 282 286 288 291 289 286 290 302 307 304 301 310 329 338 319 328 324 296 285 290 298 298 299 300 297 297 302 304 303 299 297 295 291 290 290 289
301 296 297 298 296 299 310 307 294 289 282 297 316 321 316 309 306 313 311 311 305 287 299 314 292 276 282 302 302 301 303 305 305 309 307 304 307 306 302 299 297 293 290 291
302 297 294 296 309 316 319 318 311 310 310 326 336 330 324 316 305 298 296 300 300 286 291 303 292 283 297 306 307 310 310 307 306 302 305 303 301 302 306 306 303 297 292 287
295 294 295 306 315 314 316 322 321 325 328 335 321 315 317 319 321 319 307 301 300 303 305 306 300 297 302 306 305 305 306 310 310 306 308 308 304 305 309 311 314 312 304 299